To NAV CANADA Home Page Login to a new session Search on AWWS site Feedback and Comments Disclaimer Vers la page française équivalente Tips FAQ What's new on the site To the Forecasts and Observations / NOTAM section To "File a Flight Plan" website Publications and other links Update of the User's profile FIC Telephone Numbers My Weather Data Folder Route Weather Data Regional Weather Data Local Weather Data To the Forecasts and Observations / NOTAM section
Request Generated 08/30/2015 at 01:30:48 UTC . Weather information available at that time is displayed.

METAR/TAF

NAIN/NL    

LWIS CYDP 300100Z AUTO VRB03KT 08/05 A2980=
LWIS CYDP 300000Z AUTO 15005KT 09/05 A2981=
METAR CYDP 292300Z 13010KT 15SM SCT019 08/05 A2980 RMK SC4 LAST
STAFFED OB/ NEXT 300800 SLP093=

*** REMARK        : Forecast period has ended; this was the last TAF issued
*** REMARQUE : La période de prévision est échue; ceci était le dernier TAF qui a été émis
TAF CYDP 291938Z 2920/2923 12005KT P6SM FEW020 BKN200
RMK NXT FCST WILL BE ISSUED AT 300945Z=
Your time UTC time
Weather data provided by Environment Canada and NAV CANADA